Location: Newark
(48.1333°N, 17.1000°E)
Time: 16:57:57
(UTC+00:00)

N. Korean satellite - Pass Details

Date: 27 January 2020
Orbit: 456 x 506 km, 97.2° (Epoch: 17 February)

Event Time Altitude Azimuth Distance (km) Brightness Sun altitude
Rises 17:03:58 0° 218° (SW) 2,460 11.0 -13.6°
Reaches altitude 10° 17:08:01 10° 267° (W) 1,599 10.6 -14.2°
Maximum altitude 17:08:17 10° 272° (W) 1,596 10.5 -14.3°
Drops below altitude 10° 17:08:34 10° 276° (W) 1,601 10.4 -14.3°
Sets 17:12:41 0° 325° (NW) 2,493 10.5 -15.0°
